Madison, MN

7:10 AM CST on December 15, 2019 (GMT -0600)
Madison-Lac Qui Parle County

Weather History for KDXX - August, 2019

Change the Weather History Date:

Saturday, August 17, 2019

  Actual Average (KAQP) Record (KAQP)
Temperature  
Mean Temperature 72 °F -  
Max Temperature 84 °F 77 °F 96 °F (2003)
Min Temperature 60 °F 55 °F 42 °F (2012)
Cooling Degree Days 7    
Growing Degree Days 22 (Base 50)    
Moisture  
Dew Point 64 °F    
Average Humidity 78    
Maximum Humidity 100    
Minimum Humidity 51    
Precipitation  
Precipitation 0.05 in - - ()
Sea Level Pressure  
Sea Level Pressure 29.75 in    
Wind  
Wind Speed 6 mph (South)    
Max Wind Speed 30 mph    
Max Gust Speed 43 mph    
Visibility 10 miles    
Events Rain , Thunderstorm    
Averages and records for this station are not official NWS values.
T = Trace of Precipitation, MM = Missing Value Source: NWS Daily Summary

Daily Weather History Graph

Daily Weather History Graph

Search for Another Location

Airport or City:

Astronomy

Aug. 17, 2019 Rise Set
Actual Time 6:28 AM CDT 8:28 PM CDT
Civil Twilight 5:56 AM CDT 8:59 PM CDT
Nautical Twilight 5:17 AM CDT 9:38 PM CDT
Astronomical Twilight 4:34 AM CDT 10:21 PM CDT
Moon 9:52 PM CDT (8/17) 8:21 AM CDT (8/17)
Length of Visible Light 15h 02m
Length of Day
13h 59m
Waning Gibbous, 96% of the Moon is Illuminated
Aug 17
Waning Gibbous
Aug 23
Last Quarter
Aug 30
New
Sep 5
First Quarter
Sep 13
Full

Hourly Weather History & Observations

Time (CDT) Temp. Heat Index Dew Point Humidity Pressure Visibility Wind Dir Wind Speed Gust Speed Precip Events Conditions
12:15 AM 66.2 °F - 64.4 °F 94% 29.85 in 10.0 mi South 4.6 mph - N/A   Scattered Clouds
12:19 AM 66.2 °F - 64.4 °F 94% 29.85 in 10.0 mi South 5.8 mph - N/A   Scattered Clouds
12:38 AM 68.0 °F - 64.4 °F 88% 29.85 in 10.0 mi South 5.8 mph - N/A   Mostly Cloudy
12:55 AM 66.2 °F - 64.4 °F 94% 29.85 in 10.0 mi South 4.6 mph - N/A   Mostly Cloudy
1:15 AM 66.2 °F - 64.4 °F 94% 29.84 in 10.0 mi South 4.6 mph - N/A   Scattered Clouds
1:16 AM 66.2 °F - 64.4 °F 94% 29.84 in 10.0 mi South 4.6 mph - N/A   Scattered Clouds
1:35 AM 66.2 °F - 62.6 °F 88% 29.83 in 10.0 mi South 3.5 mph - N/A   Clear
1:36 AM 66.2 °F - 62.6 °F 88% 29.83 in 10.0 mi South 4.6 mph - N/A   Clear
1:58 AM 64.4 °F - 62.6 °F 94% 29.82 in 10.0 mi SSE 4.6 mph - N/A   Clear
2:17 AM 64.4 °F - 62.6 °F 94% 29.82 in 10.0 mi SSE 4.6 mph - N/A   Clear
2:36 AM 64.4 °F - 62.6 °F 94% 29.81 in 10.0 mi South 3.5 mph - N/A   Clear
2:55 AM 64.4 °F - 62.6 °F 94% 29.79 in 10.0 mi SSE 4.6 mph - N/A   Clear
2:56 AM 64.4 °F - 62.6 °F 94% 29.79 in 10.0 mi SSE 4.6 mph - N/A   Clear
3:15 AM 64.4 °F - 62.6 °F 94% 29.78 in 10.0 mi South 3.5 mph - N/A   Clear
3:38 AM 62.6 °F - 62.6 °F 100% 29.77 in 10.0 mi South 5.8 mph - N/A   Clear
4:15 AM 60.8 °F - 60.8 °F 100% 29.74 in 10.0 mi Calm Calm - N/A   Clear
4:16 AM 60.8 °F - 59.0 °F 94% 29.74 in 10.0 mi Calm Calm - N/A   Clear
4:35 AM 62.6 °F - 60.8 °F 94% 29.74 in 10.0 mi Calm Calm - N/A   Clear
4:36 AM 62.6 °F - 60.8 °F 94% 29.74 in 10.0 mi Calm Calm - N/A   Clear
4:59 AM 60.8 °F - 60.8 °F 100% 29.75 in 7.0 mi South 4.6 mph - N/A   Clear
5:16 AM 60.8 °F - 60.8 °F 100% 29.76 in 10.0 mi South 8.1 mph - N/A   Clear
5:36 AM 62.6 °F - 60.8 °F 94% 29.78 in 10.0 mi South 5.8 mph - N/A   Clear
5:55 AM 62.6 °F - 60.8 °F 94% 29.80 in 10.0 mi SSE 6.9 mph - N/A   Clear
5:56 AM 62.6 °F - 60.8 °F 94% 29.80 in 10.0 mi SSE 5.8 mph - N/A   Clear
6:15 AM 62.6 °F - 60.8 °F 94% 29.81 in 10.0 mi SSE 5.8 mph - N/A   Clear
6:19 AM 62.6 °F - 60.8 °F 94% 29.81 in 10.0 mi SSE 6.9 mph - N/A   Clear
6:37 AM 62.6 °F - 60.8 °F 94% 29.81 in 10.0 mi SSE 4.6 mph - N/A   Clear
6:56 AM 62.6 °F - 60.8 °F 94% 29.80 in 10.0 mi SSE 4.6 mph - N/A   Clear
7:15 AM 64.4 °F - 62.6 °F 94% 29.80 in 10.0 mi SSE 3.5 mph - N/A   Clear
7:16 AM 64.4 °F - 62.6 °F 94% 29.80 in 10.0 mi SSE 3.5 mph - N/A   Clear
7:35 AM 64.4 °F - 62.6 °F 94% 29.81 in 10.0 mi South 4.6 mph - N/A   Clear
7:36 AM 64.4 °F - 62.6 °F 94% 29.81 in 10.0 mi South 4.6 mph - N/A   Clear
7:58 AM 66.2 °F - 64.4 °F 94% 29.81 in 10.0 mi South 5.8 mph - N/A   Clear
8:16 AM 68.0 °F - 64.4 °F 88% 29.80 in 10.0 mi South 4.6 mph - N/A   Clear
8:35 AM 69.8 °F - 64.4 °F 83% 29.80 in 10.0 mi South 4.6 mph - N/A   Clear
8:55 AM 71.6 °F - 64.4 °F 78% 29.80 in 10.0 mi South 6.9 mph - N/A   Clear
8:56 AM 71.6 °F - 64.4 °F 78% 29.79 in 10.0 mi South 6.9 mph - N/A   Clear
9:15 AM 73.4 °F - 64.4 °F 73% 29.79 in 10.0 mi SSW 9.2 mph - N/A   Clear
9:19 AM 73.4 °F - 64.4 °F 73% 29.79 in 10.0 mi South 9.2 mph - N/A   Clear
9:38 AM 75.2 °F - 64.4 °F 69% 29.78 in 10.0 mi South 10.4 mph 16.1 mph N/A   Clear
9:55 AM 75.2 °F - 64.4 °F 69% 29.78 in 10.0 mi South 6.9 mph - N/A   Clear
10:15 AM 77.0 °F - 64.4 °F 65% 29.78 in 10.0 mi South 8.1 mph 17.3 mph N/A   Clear
10:16 AM 77.0 °F - 64.4 °F 65% 29.78 in 10.0 mi South 10.4 mph 17.3 mph N/A   Clear
10:35 AM 78.8 °F - 64.4 °F 61% 29.78 in 10.0 mi SSW 10.4 mph 19.6 mph N/A   Clear
10:58 AM 78.8 °F - 62.6 °F 57% 29.78 in 10.0 mi SSW 10.4 mph 16.1 mph N/A   Clear
11:17 AM 80.6 °F 81.8 °F 62.6 °F 54% 29.78 in 10.0 mi South 10.4 mph - N/A   Clear
11:35 AM 80.6 °F 81.8 °F 62.6 °F 54% 29.77 in 10.0 mi South 11.5 mph - N/A   Clear
11:36 AM 80.6 °F 81.8 °F 62.6 °F 54% 29.77 in 10.0 mi SSW 11.5 mph - N/A   Clear
11:55 AM 80.6 °F 82.3 °F 64.4 °F 58% 29.77 in 10.0 mi SSW 10.4 mph - N/A   Clear
11:56 AM 80.6 °F 81.8 °F 62.6 °F 54% 29.77 in 10.0 mi SSW 11.5 mph - N/A   Clear
12:18 PM 82.4 °F 83.9 °F 64.4 °F 54% 29.76 in 10.0 mi SW 10.4 mph - N/A   Clear
12:36 PM 82.4 °F 83.9 °F 64.4 °F 54% 29.76 in 10.0 mi SW 9.2 mph - N/A   Clear
12:55 PM 82.4 °F 83.9 °F 64.4 °F 54% 29.75 in 10.0 mi SSW 8.1 mph - N/A   Clear
12:56 PM 82.4 °F 83.9 °F 64.4 °F 54% 29.75 in 10.0 mi SSW 8.1 mph - N/A   Clear
1:15 PM 82.4 °F 83.9 °F 64.4 °F 54% 29.75 in 10.0 mi WSW 4.6 mph - N/A   Clear
1:16 PM 82.4 °F 83.9 °F 64.4 °F 54% 29.75 in 10.0 mi SW 3.5 mph - N/A   Clear
1:35 PM 84.2 °F 86.6 °F 66.2 °F 55% 29.74 in 10.0 mi Calm Calm - N/A   Clear
1:40 PM 84.2 °F 86.6 °F 66.2 °F 55% 29.74 in 10.0 mi SSE 5.8 mph - N/A   Clear
1:57 PM 84.2 °F 85.6 °F 64.4 °F 51% 29.74 in 10.0 mi Calm Calm - N/A   Clear
2:15 PM 84.2 °F 86.6 °F 66.2 °F 55% 29.73 in 10.0 mi South 6.9 mph - N/A   Clear
2:35 PM 84.2 °F 87.3 °F 68.0 °F 58% 29.74 in 10.0 mi SSE 8.1 mph - N/A   Clear
2:55 PM 84.2 °F 86.6 °F 66.2 °F 55% 29.73 in 10.0 mi SSE 6.9 mph - N/A   Clear
2:56 PM 84.2 °F 86.6 °F 66.2 °F 55% 29.73 in 10.0 mi SSE 8.1 mph - N/A   Clear
3:19 PM 84.2 °F 86.6 °F 66.2 °F 55% 29.72 in 10.0 mi SE 9.2 mph 16.1 mph N/A   Clear
3:36 PM 84.2 °F 86.6 °F 66.2 °F 55% 29.72 in 10.0 mi SSE 9.2 mph - N/A   Clear
3:56 PM 84.2 °F 86.6 °F 66.2 °F 55% 29.71 in 10.0 mi SSE 10.4 mph - N/A   Clear
4:15 PM 84.2 °F 86.6 °F 66.2 °F 55% 29.70 in 10.0 mi SE 11.5 mph - N/A   Clear
4:35 PM 84.2 °F 85.6 °F 64.4 °F 51% 29.69 in 10.0 mi SSE 10.4 mph - N/A   Clear
4:39 PM 84.2 °F 85.6 °F 64.4 °F 51% 29.69 in 10.0 mi SSE 9.2 mph - N/A   Clear
4:57 PM 84.2 °F 86.6 °F 66.2 °F 55% 29.67 in 10.0 mi SSE 9.2 mph - N/A   Clear
5:16 PM 84.2 °F 86.6 °F 66.2 °F 55% 29.65 in 10.0 mi SE 11.5 mph - N/A   Clear
5:35 PM 84.2 °F 87.3 °F 68.0 °F 58% 29.66 in 10.0 mi SE 13.8 mph - N/A   Clear
5:36 PM 84.2 °F 87.3 °F 68.0 °F 58% 29.66 in 10.0 mi SE 12.7 mph 18.4 mph N/A   Clear
5:55 PM 84.2 °F 87.3 °F 68.0 °F 58% 29.66 in 10.0 mi SE 13.8 mph - N/A   Clear
5:56 PM 84.2 °F 87.3 °F 68.0 °F 58% 29.66 in 10.0 mi SE 12.7 mph - N/A   Clear
6:18 PM 82.4 °F 85.4 °F 68.0 °F 62% 29.66 in 10.0 mi SE 11.5 mph - N/A   Clear
6:36 PM 80.6 °F 83.9 °F 69.8 °F 70% 29.66 in 10.0 mi SE 6.9 mph - N/A   Clear
6:56 PM 80.6 °F 83.2 °F 68.0 °F 65% 29.67 in 10.0 mi SE 6.9 mph - N/A Thunderstorm Clear
7:15 PM 78.8 °F - 69.8 °F 74% 29.66 in 10.0 mi SE 6.9 mph - N/A Thunderstorm Scattered Clouds
7:16 PM 78.8 °F - 69.8 °F 74% 29.65 in 10.0 mi SE 6.9 mph - N/A Thunderstorm Scattered Clouds
7:35 PM 80.6 °F 83.2 °F 68.0 °F 65% 29.63 in 10.0 mi SE 9.2 mph - N/A Thunderstorm Thunderstorm
7:39 PM 78.8 °F - 68.0 °F 69% 29.63 in 10.0 mi SE 9.2 mph - N/A Thunderstorm Thunderstorm
7:58 PM 75.2 °F - 64.4 °F 69% 29.68 in 10.0 mi NNW 29.9 mph 42.6 mph N/A Rain , Thunderstorm Light Thunderstorms and Rain
8:15 PM 66.2 °F - 64.4 °F 94% 29.77 in 1.5 mi North 17.3 mph 39.1 mph N/A Rain , Thunderstorm Heavy Thunderstorms and Rain
8:35 PM 66.2 °F - 64.4 °F 94% 29.75 in 3.0 mi North 9.2 mph 13.8 mph N/A Rain , Thunderstorm Heavy Thunderstorms and Rain
8:36 PM 66.2 °F - 64.4 °F 94% 29.75 in 4.0 mi North 6.9 mph 13.8 mph N/A Rain , Thunderstorm Heavy Thunderstorms and Rain
8:55 PM 68.0 °F - 66.2 °F 94% 29.74 in 10.0 mi Calm Calm - N/A Rain , Thunderstorm Thunderstorms and Rain
9:19 PM 66.2 °F - 66.2 °F 100% 29.74 in 10.0 mi Calm Calm - 0.02 in Rain , Thunderstorm Light Thunderstorms and Rain
9:37 PM 66.2 °F - 66.2 °F 100% 29.71 in 10.0 mi Calm Calm - 0.02 in Rain Rain
9:56 PM 68.0 °F - 66.2 °F 94% 29.68 in 10.0 mi NE 9.2 mph - N/A Rain Light Rain
10:15 PM 68.0 °F - 66.2 °F 94% 29.68 in 10.0 mi ENE 6.9 mph - N/A Rain Light Rain
10:35 PM 66.2 °F - 66.2 °F 100% 29.68 in 10.0 mi East 4.6 mph - N/A Rain Rain
10:57 PM 66.2 °F - 66.2 °F 100% 29.70 in 10.0 mi East 3.5 mph - N/A Rain Rain
11:16 PM 66.2 °F - 66.2 °F 100% 29.73 in 10.0 mi North 5.8 mph - 0.03 in Rain Heavy Rain
11:35 PM 66.2 °F - 66.2 °F 100% 29.75 in 10.0 mi WNW 8.1 mph - N/A Rain Rain
11:36 PM 66.2 °F - 66.2 °F 100% 29.75 in 10.0 mi WNW 8.1 mph - N/A Rain Rain
11:55 PM 66.2 °F - 64.4 °F 94% 29.78 in 10.0 mi WNW 10.4 mph - N/A Rain Heavy Rain
11:56 PM 66.2 °F - 64.4 °F 94% 29.78 in 10.0 mi WNW 10.4 mph - N/A Rain Heavy Rain